星链-30068 (STARLINK-30068 )

导读

STARLINK-30068是美国SpaceX公司星链(Starlink)星座组网卫星,于2023年5月19日发射入轨,属于星链第二代卫星组网批次。该卫星运行于近地轨道,配备相控阵天线与氪离子推进系统,可支持全球低延迟高速卫星互联网服务,属于SpaceX大规模星座部署的一部分,助力实现全球偏远地区宽带覆盖,卫星退役后会在大气层主动销毁,减少空间碎片影响。

Basic Information
目录编号:
56698
目录名称:
STARLINK-30068
国际标识:
2023-067L
轨道中心:
EARTH
卫星名称:
星链-30068
卫星全名:
星链-30068 (STARLINK-30068 )
卫星状态:
在轨 (已飞行1211 天)
发射日期:
2023-05-19 UTC
国别 :
美国 (US)
星等 :
--
This satellite is enrolled in the Space Conjunction Data Service (SCDS) and the current flight risk assessment level is: High Risk
Orbit Information
数据来源 国际轨道数据 AOE轨道数据
星历时间 2026-09-10T04:24:28+0800
1天前
查看轨道信息
2026-09-06T07:00:00+0800
5天前
查看轨道信息
半长轴 6861.212km 6861.206km
偏心率 0.0001839 0.0001973
轨道倾角 43.005° 43.005°
近地点辐角 256.598° 294.023°
升交点赤经 299.847° 321.837°
平近点角 103.466° 237.808°
近地点 481.813km 481.715km
远地点 484.337km 484.423km
周期 94.267分钟 94.267分钟
每日圈数 15.275715 15.275734
Detailed Information
固有亮度:
5
最大亮度:
0.3
卫星平台:
Starlink v2.0 mini
覆盖范围:
全球
运营商:
太空探索技术公司
运营商所在国:
美国
制造商(研发单位):
太空探索技术公司
制造商所在国:
美国
使用方式:
暂无
Satellite Introduction
星链(Starlink)计划是由太空探索技术公司(SpaceX)提出的一个巨型低轨卫星互联网星座项目,计划在2019年至2024年间在太空搭建由约1.2万颗卫星组成的“星链”网络,其中1584颗将部署在地球上空550千米处的近地轨道,并从2020年开始工作。该卫星仍在工作。
2D Orbit Map
3D Orbit Map
Orbit Altitude Analysis Chart
Orbit Inclination Analysis Chart
Orbit Comprehensive Analysis Chart
View Comprehensive Chart
Conjunction Data List
Event ID Objects TCA Miss Dist (km) Collision Risk Probability Collision Risk Index (CRI) Action
CDM_260913-071205-669806-644621
2026-09-13T
07:12:38+0000
0.295 km
中距离
1.884042E-4 高风险 0.81
CDM_260912-235005-669806-433821
2026-09-12T
23:50:36+0000
1.291 km
极远距离
8.388343E-6 低风险 0.53
CDM_260913-075905-669806-644621
2026-09-13T
07:59:42+0000
0.947 km
远距离
6.759231E-6 低风险 0.52
CDM_260912-221605-669806-433821
2026-09-12T
22:16:27+0000
1.538 km
极远距离
4.689799E-6 低风险 0.48
CDM_260913-100205-669806-433821
2026-09-13T
10:02:36+0000
2.032 km
极远距离
2.126588E-6 低风险 0.42
CDM_260913-083705-669806-267021
2026-09-13T
08:37:29+0000
2.837 km
极远距离
1.093784E-6 低风险 0.36
CDM_260913-062505-669806-404421
2026-09-13T
06:25:53+0000
2.807 km
极远距离
1.068484E-6 低风险 0.36
CDM_260912-081405-669806-668121
OBJECT R (66681)
2026-09-12T
08:14:45+0000
2.839 km
极远距离
1.034459E-6 低风险 0.35
CDM_260911-230205-283605-669821
2026-09-11T
23:02:19+0000
2.466 km
极远距离
8.492107E-7 极低风险 0.34
CDM_260913-092805-669806-253021
2026-09-13T
09:28:32+0000
2.511 km
极远距离
7.748647E-7 极低风险 0.33
Miss Distance Evolution Trend with All Objects
Collision Probability Evolution Trend with All Objects